Location: Aldenham
(51.6667°N, 0.3500°W)
Time: 10:59:53
(UTC+00:00)

S-56A Canister/Altair - Visible Passes

Search period start: 16 February 2026 00:00
Search period end: 26 February 2026 00:00
Orbit: 632 x 2485 km, 38.9° (Epoch: 16 February)

Date Brightness Start Highest point End Pass type
(mag) Time Alt. Az. Time Alt. Az. Time Alt. Az.
16 Feb 10.7 02:03:46 20° ESE 02:03:46 20° ESE 02:07:11 10° ESE visible
16 Feb 9.8 04:01:01 34° SSW 04:01:22 34° SSW 04:12:06 10° SE visible
16 Feb 10.6 05:58:16 11° WSW 06:05:11 21° SSW 06:14:07 10° S visible
17 Feb 11.1 01:30:50 12° ESE 01:30:50 12° ESE 01:31:24 10° ESE visible
17 Feb 10.0 03:28:05 32° S 03:28:05 32° S 03:36:26 10° SE visible
17 Feb 10.3 05:25:20 17° WSW 05:30:00 22° SSW 05:39:00 10° SSE visible
18 Feb 10.3 02:55:12 26° SSE 02:55:12 26° SSE 03:00:46 10° SE visible
18 Feb 10.2 04:52:28 22° SW 04:54:50 23° SSW 05:03:47 10° SSE visible
19 Feb 10.7 02:22:22 18° SE 02:22:22 18° SE 02:25:08 10° SE visible
19 Feb 10.1 04:19:38 24° SSW 04:19:43 24° SSW 04:28:28 10° SSE visible
20 Feb 10.3 03:46:52 23° S 03:46:52 23° S 03:53:06 10° SSE visible
20 Feb 10.7 05:45:34 10° SW 05:48:03 11° SW 05:50:41 10° SSW visible
21 Feb 10.6 03:14:08 18° SSE 03:14:08 18° SSE 03:17:42 10° SSE visible
21 Feb 10.6 05:11:25 12° SW 05:12:59 12° SW 05:16:42 10° SSW visible
22 Feb 10.9 02:41:27 12° SSE 02:41:27 12° SSE 02:42:16 10° SE visible
22 Feb 10.6 04:38:45 13° SSW 04:38:45 13° SSW 04:42:15 10° S visible
23 Feb 10.8 04:06:08 12° S 04:06:08 12° S 04:07:32 10° S visible
